User: anonymous   Login
Location: Staunton
(38.1490°N, 79.0720°W)
Time: 02:33:58
(UTC-05:00)
Language:

ISS - Orbit

View from above orbital plane
View from above orbital plane
View from above satellite
View from above satellite

Ground track
Ground track

The orbit data is extracted from the following two-line orbital elements,

1 25544U 98067A   21341.10685219  .00002771  00000-0  58564-4 0  9992
2 25544  51.6432 207.7015 0004106 280.3160 240.0239 15.48944082315392
Epoch (UTC): 07 December 2021 02:33:52
Eccentricity: 0.0004106
inclination: 51.6432°
perigee height: 417 km
apogee height: 422 km
right ascension of ascending node: 207.7015°
argument of perigee: 280.3160°
revolutions per day: 15.48944082
mean anomaly at epoch: 240.0239°
orbit number at epoch: 31539

The dashed part of the orbit path shows where the satellite is in the earth's shadow,  

DLR